Weather WX

World > North America > United States > Ohio

North Star, Ohio Regional Weather

Lat: 40.32N, Lon: 84.57W
Wx Zone: OHZ042
Warning FLW WEATHER ALERT - FLASH FLOOD WATCH (More Info. Click Here) Warning
Feedback

North Star, OH Regional Weather

Expires:201906161700;;167392
ASUS41 KCLE 161612
RWRCLE
OHIO REGIONAL WEATHER ROUNDUP
NATIONAL WEATHER SERVICE WILMINGTON, OH
1200 PM EDT SUN JUN 16 2019

NOTE: "FAIR" INDICATES FEW OR NO CLOUDS BELOW 12,000 FEET WITH NO
SIGNIFICANT WEATHER AND/OR OBSTRUCTIONS TO VISIBILITY.


OHZ042-051>053-060>062-070>072-077>081-161700-
  SOUTHWEST OHIO
  
CITY           SKY/WX    TMP DP  RH WIND       PRES   REMARKS
CINC-COVINGTON TSTM      68  64  87 SW14      29.93R                  
CINC-LUNKEN    LGT RAIN  69  66  90 S14G25    29.92S                  
HAMILTON       FAIR      71  69  93 VRB5      29.92S                  
DAYTON         PTSUNNY   76  66  71 SW17      29.89R                  
WRIGHT-PAT AFB PTSUNNY   75  67  76 SW15G25   29.88R                  
DAYTON GENERAL PTSUNNY   73  65  75 SW12G22   29.89S                  
WILMINGTON     FAIR      71  67  87 W15       29.90R                  
$$


SKY/WX - Weather  TMP - Temperature  DP - Dew Point  RH - Relative Humidity
WIND - Wind Direction/Speed PRES - Barometric Pressure VSB - Visibility
WCI - Wind Chill Index E13G22 Wind - East Wind 13 mph/Gusts of 22 mph